Location: Doschendorf
(50.0069°N, 11.0602°E)
Time: 09:27:28
(UTC+00:00)

Cosmos 1844 Rocket - Pass Details

Date: 17 November 2019
Orbit: 826 x 843 km, 71.0° (Epoch: 11 December)

Event Time Altitude Azimuth Distance (km) Brightness Sun altitude
Rises 17:26:47 0° 333° (NNW) 3,380 6.1 -18.6°
Reaches altitude 10° 17:30:10 10° 353° (N) 2,442 5.1 -19.1°
Enters shadow 17:33:17 17° 27° (NNE) 1,998 4.3 -19.6°
